#datetime,building,power
2024-04-23T00:00:00,axn,27.63
2024-04-23T00:01:00,axn,28.38
2024-04-23T00:02:00,axn,28.12
2024-04-23T00:03:00,axn,28.14
2024-04-23T00:04:00,axn,27.98
2024-04-23T00:05:00,axn,28.09
2024-04-23T00:06:00,axn,28.26
2024-04-23T00:07:00,axn,34.22
2024-04-23T00:08:00,axn,34.04
2024-04-23T00:09:00,axn,33.74
2024-04-23T00:10:00,axn,27.92
2024-04-23T00:11:00,axn,27.77
2024-04-23T00:12:00,axn,28.17
2024-04-23T00:13:00,axn,28.20
2024-04-23T00:14:00,axn,28.32
2024-04-23T00:15:00,axn,28.22
2024-04-23T00:16:00,axn,28.22
2024-04-23T00:17:00,axn,28.16
2024-04-23T00:18:00,axn,28.23
2024-04-23T00:19:00,axn,28.34
2024-04-23T00:20:00,axn,28.22
2024-04-23T00:21:00,axn,28.15
2024-04-23T00:22:00,axn,28.32
2024-04-23T00:23:00,axn,28.54
2024-04-23T00:24:00,axn,28.09
2024-04-23T00:25:00,axn,27.95
2024-04-23T00:26:00,axn,27.47
2024-04-23T00:27:00,axn,27.48
2024-04-23T00:28:00,axn,27.63
2024-04-23T00:29:00,axn,27.78
2024-04-23T00:30:00,axn,27.77
2024-04-23T00:31:00,axn,27.84
2024-04-23T00:32:00,axn,27.41
2024-04-23T00:33:00,axn,27.81
2024-04-23T00:34:00,axn,27.48
2024-04-23T00:35:00,axn,27.44
2024-04-23T00:36:00,axn,27.26
2024-04-23T00:37:00,axn,27.42
2024-04-23T00:38:00,axn,27.89
2024-04-23T00:39:00,axn,27.75
2024-04-23T00:40:00,axn,27.58
2024-04-23T00:41:00,axn,27.70
2024-04-23T00:42:00,axn,27.65
2024-04-23T00:43:00,axn,27.46
2024-04-23T00:44:00,axn,27.29
2024-04-23T00:45:00,axn,27.79
2024-04-23T00:46:00,axn,27.59
2024-04-23T00:47:00,axn,27.66
2024-04-23T00:48:00,axn,27.54
2024-04-23T00:49:00,axn,27.54
2024-04-23T00:50:00,axn,27.51
2024-04-23T00:51:00,axn,27.72
2024-04-23T00:52:00,axn,28.05
2024-04-23T00:53:00,axn,27.23
2024-04-23T00:54:00,axn,27.19
2024-04-23T00:55:00,axn,27.32
2024-04-23T00:56:00,axn,27.51
2024-04-23T00:57:00,axn,32.73
2024-04-23T00:58:00,axn,26.98
2024-04-23T00:59:00,axn,26.83
2024-04-23T01:00:00,axn,26.92
2024-04-23T01:01:00,axn,27.18
2024-04-23T01:02:00,axn,26.65
2024-04-23T01:03:00,axn,26.86
2024-04-23T01:04:00,axn,27.06
2024-04-23T01:05:00,axn,27.13
2024-04-23T01:06:00,axn,27.07
2024-04-23T01:07:00,axn,27.03
2024-04-23T01:08:00,axn,26.65
2024-04-23T01:09:00,axn,26.82
2024-04-23T01:10:00,axn,26.95
2024-04-23T01:11:00,axn,26.88
2024-04-23T01:12:00,axn,26.77
2024-04-23T01:13:00,axn,26.80
2024-04-23T01:14:00,axn,41.43
2024-04-23T01:15:00,axn,26.64
2024-04-23T01:16:00,axn,26.29
2024-04-23T01:17:00,axn,26.56
2024-04-23T01:18:00,axn,26.58
2024-04-23T01:19:00,axn,26.69
2024-04-23T01:20:00,axn,27.11
2024-04-23T01:21:00,axn,26.55
2024-04-23T01:22:00,axn,26.39
2024-04-23T01:23:00,axn,26.24
2024-04-23T01:24:00,axn,26.48
2024-04-23T01:25:00,axn,26.25
2024-04-23T01:26:00,axn,26.57
2024-04-23T01:27:00,axn,26.15
2024-04-23T01:28:00,axn,26.27
2024-04-23T01:29:00,axn,26.26
2024-04-23T01:30:00,axn,36.92
2024-04-23T01:31:00,axn,36.56
2024-04-23T01:32:00,axn,36.64
2024-04-23T01:33:00,axn,36.42
2024-04-23T01:34:00,axn,26.34
2024-04-23T01:35:00,axn,26.19
2024-04-23T01:36:00,axn,25.84
2024-04-23T01:37:00,axn,26.01
2024-04-23T01:38:00,axn,26.12
2024-04-23T01:39:00,axn,26.22
2024-04-23T01:40:00,axn,25.83
2024-04-23T01:41:00,axn,26.22
2024-04-23T01:42:00,axn,25.84
2024-04-23T01:43:00,axn,26.20
2024-04-23T01:44:00,axn,25.88
2024-04-23T01:45:00,axn,25.55
2024-04-23T01:46:00,axn,25.98
2024-04-23T01:47:00,axn,26.04
2024-04-23T01:48:00,axn,26.02
2024-04-23T01:49:00,axn,26.08
2024-04-23T01:50:00,axn,26.04
2024-04-23T01:51:00,axn,26.25
2024-04-23T01:52:00,axn,26.04
2024-04-23T01:53:00,axn,26.03
2024-04-23T01:54:00,axn,25.99
2024-04-23T01:55:00,axn,26.55
2024-04-23T01:56:00,axn,26.22
2024-04-23T01:57:00,axn,26.22
2024-04-23T01:58:00,axn,26.07
2024-04-23T01:59:00,axn,26.11
2024-04-23T02:00:00,axn,26.37
2024-04-23T02:01:00,axn,26.22
2024-04-23T02:02:00,axn,26.17
2024-04-23T02:03:00,axn,26.03
2024-04-23T02:04:00,axn,26.61
2024-04-23T02:05:00,axn,26.00
2024-04-23T02:06:00,axn,25.97
2024-04-23T02:07:00,axn,26.16
2024-04-23T02:08:00,axn,26.01
2024-04-23T02:09:00,axn,25.90
2024-04-23T02:10:00,axn,26.03
2024-04-23T02:11:00,axn,26.11
2024-04-23T02:12:00,axn,26.30
2024-04-23T02:13:00,axn,26.15
2024-04-23T02:14:00,axn,26.15
2024-04-23T02:15:00,axn,25.98
2024-04-23T02:16:00,axn,26.03
2024-04-23T02:17:00,axn,25.79
2024-04-23T02:18:00,axn,25.82
2024-04-23T02:19:00,axn,25.88
2024-04-23T02:20:00,axn,25.99
2024-04-23T02:21:00,axn,25.95
2024-04-23T02:22:00,axn,28.66
2024-04-23T02:23:00,axn,28.64
2024-04-23T02:24:00,axn,25.68
2024-04-23T02:25:00,axn,26.34
2024-04-23T02:26:00,axn,26.06
2024-04-23T02:27:00,axn,26.11
2024-04-23T02:28:00,axn,26.14
2024-04-23T02:29:00,axn,25.93
2024-04-23T02:30:00,axn,25.95
2024-04-23T02:31:00,axn,26.08
2024-04-23T02:32:00,axn,26.23
2024-04-23T02:33:00,axn,26.12
2024-04-23T02:34:00,axn,26.04
2024-04-23T02:35:00,axn,26.17
2024-04-23T02:36:00,axn,26.71
2024-04-23T02:37:00,axn,26.07
2024-04-23T02:38:00,axn,26.16
2024-04-23T02:39:00,axn,26.39
2024-04-23T02:40:00,axn,26.60
2024-04-23T02:41:00,axn,26.29
2024-04-23T02:42:00,axn,26.07
2024-04-23T02:43:00,axn,26.16
2024-04-23T02:44:00,axn,26.88
2024-04-23T02:45:00,axn,26.11
2024-04-23T02:46:00,axn,26.01
2024-04-23T02:47:00,axn,26.00
2024-04-23T02:48:00,axn,26.00
2024-04-23T02:49:00,axn,25.99
2024-04-23T02:50:00,axn,25.97
2024-04-23T02:51:00,axn,26.04
2024-04-23T02:52:00,axn,26.26
2024-04-23T02:53:00,axn,26.02
2024-04-23T02:54:00,axn,26.21
2024-04-23T02:55:00,axn,25.88
2024-04-23T02:56:00,axn,26.17
2024-04-23T02:57:00,axn,25.95
2024-04-23T02:58:00,axn,25.89
2024-04-23T02:59:00,axn,30.95
2024-04-23T03:00:00,axn,25.78
2024-04-23T03:01:00,axn,25.83
2024-04-23T03:02:00,axn,25.81
2024-04-23T03:03:00,axn,25.72
2024-04-23T03:04:00,axn,25.73
2024-04-23T03:05:00,axn,25.55
2024-04-23T03:06:00,axn,26.23
2024-04-23T03:07:00,axn,25.76
2024-04-23T03:08:00,axn,25.91
2024-04-23T03:09:00,axn,25.57
2024-04-23T03:10:00,axn,25.38
2024-04-23T03:11:00,axn,25.76
2024-04-23T03:12:00,axn,25.75
2024-04-23T03:13:00,axn,25.79
2024-04-23T03:14:00,axn,26.02
2024-04-23T03:15:00,axn,25.82
2024-04-23T03:16:00,axn,26.09
2024-04-23T03:17:00,axn,26.00
2024-04-23T03:18:00,axn,25.66
2024-04-23T03:19:00,axn,25.68
2024-04-23T03:20:00,axn,26.11
2024-04-23T03:21:00,axn,26.10
2024-04-23T03:22:00,axn,26.17
2024-04-23T03:23:00,axn,26.30
2024-04-23T03:24:00,axn,26.18
2024-04-23T03:25:00,axn,26.12
2024-04-23T03:26:00,axn,26.52
2024-04-23T03:27:00,axn,26.87
2024-04-23T03:28:00,axn,26.30
2024-04-23T03:29:00,axn,26.23
2024-04-23T03:30:00,axn,26.19
2024-04-23T03:31:00,axn,26.29
2024-04-23T03:32:00,axn,26.25
2024-04-23T03:33:00,axn,26.24
2024-04-23T03:34:00,axn,26.45
2024-04-23T03:35:00,axn,26.50
2024-04-23T03:36:00,axn,26.48
2024-04-23T03:37:00,axn,25.94
2024-04-23T03:38:00,axn,40.85
2024-04-23T03:39:00,axn,40.49
2024-04-23T03:40:00,axn,40.60
2024-04-23T03:41:00,axn,40.23
2024-04-23T03:42:00,axn,40.21
2024-04-23T03:43:00,axn,40.08
2024-04-23T03:44:00,axn,26.34
2024-04-23T03:45:00,axn,25.85
2024-04-23T03:46:00,axn,25.88
2024-04-23T03:47:00,axn,25.89
2024-04-23T03:48:00,axn,25.83
2024-04-23T03:49:00,axn,25.92
2024-04-23T03:50:00,axn,25.90
2024-04-23T03:51:00,axn,26.01
2024-04-23T03:52:00,axn,26.06
2024-04-23T03:53:00,axn,25.86
2024-04-23T03:54:00,axn,25.80
2024-04-23T03:55:00,axn,25.72
2024-04-23T03:56:00,axn,25.72
2024-04-23T03:57:00,axn,25.72
2024-04-23T03:58:00,axn,26.49
2024-04-23T03:59:00,axn,26.39
2024-04-23T04:00:00,axn,26.25
2024-04-23T04:01:00,axn,26.32
2024-04-23T04:02:00,axn,26.23
2024-04-23T04:03:00,axn,26.13
2024-04-23T04:04:00,axn,25.96
2024-04-23T04:05:00,axn,26.27
2024-04-23T04:06:00,axn,26.41
2024-04-23T04:07:00,axn,26.48
2024-04-23T04:08:00,axn,26.48
2024-04-23T04:09:00,axn,26.42
2024-04-23T04:10:00,axn,26.51
2024-04-23T04:11:00,axn,41.33
2024-04-23T04:12:00,axn,26.11
2024-04-23T04:13:00,axn,26.00
2024-04-23T04:14:00,axn,26.50
2024-04-23T04:15:00,axn,25.94
2024-04-23T04:16:00,axn,26.01
2024-04-23T04:17:00,axn,26.01
2024-04-23T04:18:00,axn,25.88
2024-04-23T04:19:00,axn,25.94
2024-04-23T04:20:00,axn,26.41
2024-04-23T04:21:00,axn,25.96
2024-04-23T04:22:00,axn,25.95
2024-04-23T04:23:00,axn,26.21
2024-04-23T04:24:00,axn,26.23
2024-04-23T04:25:00,axn,26.10
2024-04-23T04:26:00,axn,26.06
2024-04-23T04:27:00,axn,26.13
2024-04-23T04:28:00,axn,25.87
2024-04-23T04:29:00,axn,26.14
2024-04-23T04:30:00,axn,25.86
2024-04-23T04:31:00,axn,25.97
2024-04-23T04:32:00,axn,26.08
2024-04-23T04:33:00,axn,25.96
2024-04-23T04:34:00,axn,26.22
2024-04-23T04:35:00,axn,31.16
2024-04-23T04:36:00,axn,30.63
2024-04-23T04:37:00,axn,30.48
2024-04-23T04:38:00,axn,30.37
2024-04-23T04:39:00,axn,25.78
2024-04-23T04:40:00,axn,25.51
2024-04-23T04:41:00,axn,25.84
2024-04-23T04:42:00,axn,25.60
2024-04-23T04:43:00,axn,26.28
2024-04-23T04:44:00,axn,26.71
2024-04-23T04:45:00,axn,26.71
2024-04-23T04:46:00,axn,26.79
2024-04-23T04:47:00,axn,27.02
2024-04-23T04:48:00,axn,26.97
2024-04-23T04:49:00,axn,27.04
2024-04-23T04:50:00,axn,26.92
2024-04-23T04:51:00,axn,26.94
2024-04-23T04:52:00,axn,43.22
2024-04-23T04:53:00,axn,27.00
2024-04-23T04:54:00,axn,27.35
2024-04-23T04:55:00,axn,26.87
2024-04-23T04:56:00,axn,27.04
2024-04-23T04:57:00,axn,26.41
2024-04-23T04:58:00,axn,27.04
2024-04-23T04:59:00,axn,27.05
2024-04-23T05:00:00,axn,27.02
2024-04-23T05:01:00,axn,37.19
2024-04-23T05:02:00,axn,24.89
2024-04-23T05:03:00,axn,29.78
2024-04-23T05:04:00,axn,29.43
2024-04-23T05:05:00,axn,29.40
2024-04-23T05:06:00,axn,29.28
2024-04-23T05:07:00,axn,29.41
2024-04-23T05:08:00,axn,29.68
2024-04-23T05:09:00,axn,24.71
2024-04-23T05:10:00,axn,24.36
2024-04-23T05:11:00,axn,24.32
2024-04-23T05:12:00,axn,24.47
2024-04-23T05:13:00,axn,24.57
2024-04-23T05:14:00,axn,24.59
2024-04-23T05:15:00,axn,24.68
2024-04-23T05:16:00,axn,24.84
2024-04-23T05:17:00,axn,25.07
2024-04-23T05:18:00,axn,25.79
2024-04-23T05:19:00,axn,25.31
2024-04-23T05:20:00,axn,25.63
2024-04-23T05:21:00,axn,25.72
2024-04-23T05:22:00,axn,25.48
2024-04-23T05:23:00,axn,25.33
2024-04-23T05:24:00,axn,25.58
2024-04-23T05:25:00,axn,29.96
2024-04-23T05:26:00,axn,26.39
2024-04-23T05:27:00,axn,25.95
2024-04-23T05:28:00,axn,27.74
2024-04-23T05:29:00,axn,27.78
2024-04-23T05:30:00,axn,27.63
2024-04-23T05:31:00,axn,28.75
2024-04-23T05:32:00,axn,29.41
2024-04-23T05:33:00,axn,28.90
2024-04-23T05:34:00,axn,28.87
2024-04-23T05:35:00,axn,28.82
2024-04-23T05:36:00,axn,28.86
2024-04-23T05:37:00,axn,28.93
2024-04-23T05:38:00,axn,29.12
2024-04-23T05:39:00,axn,28.90
2024-04-23T05:40:00,axn,29.37
2024-04-23T05:41:00,axn,28.99
2024-04-23T05:42:00,axn,29.56
2024-04-23T05:43:00,axn,29.06
2024-04-23T05:44:00,axn,28.79
2024-04-23T05:45:00,axn,29.16
2024-04-23T05:46:00,axn,29.19
2024-04-23T05:47:00,axn,29.25
2024-04-23T05:48:00,axn,29.66
2024-04-23T05:49:00,axn,29.07
2024-04-23T05:50:00,axn,29.07
2024-04-23T05:51:00,axn,28.68
2024-04-23T05:52:00,axn,33.38
2024-04-23T05:53:00,axn,34.07
2024-04-23T05:54:00,axn,28.65
2024-04-23T05:55:00,axn,28.63
2024-04-23T05:56:00,axn,28.40
2024-04-23T05:57:00,axn,28.40
2024-04-23T05:58:00,axn,28.28
2024-04-23T05:59:00,axn,28.66
2024-04-23T06:00:00,axn,28.61
2024-04-23T06:01:00,axn,28.52
2024-04-23T06:02:00,axn,28.43
2024-04-23T06:03:00,axn,28.02
2024-04-23T06:04:00,axn,28.38
2024-04-23T06:05:00,axn,28.51
2024-04-23T06:06:00,axn,28.34
2024-04-23T06:07:00,axn,28.76
2024-04-23T06:08:00,axn,28.16
2024-04-23T06:09:00,axn,28.28
2024-04-23T06:10:00,axn,29.44
2024-04-23T06:11:00,axn,29.39
2024-04-23T06:12:00,axn,29.11
2024-04-23T06:13:00,axn,29.31
2024-04-23T06:14:00,axn,28.93
2024-04-23T06:15:00,axn,29.05
2024-04-23T06:16:00,axn,28.88
2024-04-23T06:17:00,axn,28.95
2024-04-23T06:18:00,axn,28.75
2024-04-23T06:19:00,axn,28.75
2024-04-23T06:20:00,axn,29.55
2024-04-23T06:21:00,axn,28.75
2024-04-23T06:22:00,axn,28.93
2024-04-23T06:23:00,axn,34.83
2024-04-23T06:24:00,axn,34.66
2024-04-23T06:25:00,axn,29.83
2024-04-23T06:26:00,axn,30.11
2024-04-23T06:27:00,axn,29.79
2024-04-23T06:28:00,axn,29.85
2024-04-23T06:29:00,axn,30.11
2024-04-23T06:30:00,axn,30.39
2024-04-23T06:31:00,axn,46.66
2024-04-23T06:32:00,axn,30.31
2024-04-23T06:33:00,axn,30.31
2024-04-23T06:34:00,axn,30.00
2024-04-23T06:35:00,axn,30.18
2024-04-23T06:36:00,axn,29.85
2024-04-23T06:37:00,axn,30.21
2024-04-23T06:38:00,axn,29.87
2024-04-23T06:39:00,axn,29.82
2024-04-23T06:40:00,axn,29.70
2024-04-23T06:41:00,axn,29.75
2024-04-23T06:42:00,axn,29.37
2024-04-23T06:43:00,axn,29.33
2024-04-23T06:44:00,axn,29.71
2024-04-23T06:45:00,axn,29.91
2024-04-23T06:46:00,axn,29.54
2024-04-23T06:47:00,axn,29.93
2024-04-23T06:48:00,axn,29.68
2024-04-23T06:49:00,axn,29.31
2024-04-23T06:50:00,axn,29.62
2024-04-23T06:51:00,axn,29.66
2024-04-23T06:52:00,axn,29.59
2024-04-23T06:53:00,axn,29.62
2024-04-23T06:54:00,axn,29.43
2024-04-23T06:55:00,axn,29.61
2024-04-23T06:56:00,axn,29.23
2024-04-23T06:57:00,axn,34.13
2024-04-23T06:58:00,axn,29.50
2024-04-23T06:59:00,axn,29.60
2024-04-23T07:00:00,axn,29.24
2024-04-23T07:01:00,axn,32.33
2024-04-23T07:02:00,axn,37.26
2024-04-23T07:03:00,axn,35.98
2024-04-23T07:04:00,axn,34.75
2024-04-23T07:05:00,axn,32.96
2024-04-23T07:06:00,axn,35.93
2024-04-23T07:07:00,axn,34.26
2024-04-23T07:08:00,axn,33.56
2024-04-23T07:09:00,axn,33.41
2024-04-23T07:10:00,axn,33.73
2024-04-23T07:11:00,axn,36.65
2024-04-23T07:12:00,axn,36.28
2024-04-23T07:13:00,axn,33.96
2024-04-23T07:14:00,axn,33.34
2024-04-23T07:15:00,axn,33.54
2024-04-23T07:16:00,axn,33.82
2024-04-23T07:17:00,axn,33.93
2024-04-23T07:18:00,axn,34.34
2024-04-23T07:19:00,axn,33.45
2024-04-23T07:20:00,axn,33.47
2024-04-23T07:21:00,axn,33.57
2024-04-23T07:22:00,axn,33.19
2024-04-23T07:23:00,axn,33.34
2024-04-23T07:24:00,axn,33.50
2024-04-23T07:25:00,axn,33.38
2024-04-23T07:26:00,axn,33.37
2024-04-23T07:27:00,axn,33.23
2024-04-23T07:28:00,axn,33.37
2024-04-23T07:29:00,axn,37.29
2024-04-23T07:30:00,axn,41.55
2024-04-23T07:31:00,axn,37.48
2024-04-23T07:32:00,axn,37.51
2024-04-23T07:33:00,axn,53.73
2024-04-23T07:34:00,axn,37.13
2024-04-23T07:35:00,axn,37.11
2024-04-23T07:36:00,axn,65.44
2024-04-23T07:37:00,axn,49.52
2024-04-23T07:38:00,axn,47.76
2024-04-23T07:39:00,axn,47.32
2024-04-23T07:40:00,axn,37.39
2024-04-23T07:41:00,axn,37.48
2024-04-23T07:42:00,axn,37.09
2024-04-23T07:43:00,axn,36.75
2024-04-23T07:44:00,axn,36.65
2024-04-23T07:45:00,axn,36.35
2024-04-23T07:46:00,axn,37.89
2024-04-23T07:47:00,axn,37.23
2024-04-23T07:48:00,axn,51.44
2024-04-23T07:49:00,axn,51.56
2024-04-23T07:50:00,axn,51.39
2024-04-23T07:51:00,axn,52.97
2024-04-23T07:52:00,axn,37.12
2024-04-23T07:53:00,axn,37.28
2024-04-23T07:54:00,axn,37.51
2024-04-23T07:55:00,axn,46.37
2024-04-23T07:56:00,axn,37.66
2024-04-23T07:57:00,axn,37.83
2024-04-23T07:58:00,axn,37.30
2024-04-23T07:59:00,axn,37.39
2024-04-23T08:00:00,axn,37.40
2024-04-23T08:01:00,axn,44.04
2024-04-23T08:02:00,axn,43.79
2024-04-23T08:03:00,axn,39.56
2024-04-23T08:04:00,axn,39.20
2024-04-23T08:05:00,axn,39.87
2024-04-23T08:06:00,axn,40.31
2024-04-23T08:07:00,axn,39.48
2024-04-23T08:08:00,axn,39.66
2024-04-23T08:09:00,axn,39.30
2024-04-23T08:10:00,axn,39.36
2024-04-23T08:11:00,axn,39.89
2024-04-23T08:12:00,axn,40.51
2024-04-23T08:13:00,axn,39.68
2024-04-23T08:14:00,axn,40.53
2024-04-23T08:15:00,axn,40.65
2024-04-23T08:16:00,axn,43.19
2024-04-23T08:17:00,axn,47.69
2024-04-23T08:18:00,axn,47.71
2024-04-23T08:19:00,axn,48.22
2024-04-23T08:20:00,axn,41.86
2024-04-23T08:21:00,axn,41.62
2024-04-23T08:22:00,axn,41.40
2024-04-23T08:23:00,axn,41.37
2024-04-23T08:24:00,axn,41.77
2024-04-23T08:25:00,axn,41.74
2024-04-23T08:26:00,axn,41.42
2024-04-23T08:27:00,axn,41.71
2024-04-23T08:28:00,axn,41.68
2024-04-23T08:29:00,axn,41.99
2024-04-23T08:30:00,axn,42.03
2024-04-23T08:31:00,axn,41.84
2024-04-23T08:32:00,axn,42.22
2024-04-23T08:33:00,axn,46.26
2024-04-23T08:34:00,axn,46.43
2024-04-23T08:35:00,axn,42.80
2024-04-23T08:36:00,axn,42.09
2024-04-23T08:37:00,axn,42.16
2024-04-23T08:38:00,axn,42.16
2024-04-23T08:39:00,axn,42.22
2024-04-23T08:40:00,axn,41.63
2024-04-23T08:41:00,axn,42.12
2024-04-23T08:42:00,axn,42.28
2024-04-23T08:43:00,axn,41.59
2024-04-23T08:44:00,axn,45.88
2024-04-23T08:45:00,axn,45.88
2024-04-23T08:46:00,axn,46.53
2024-04-23T08:47:00,axn,46.56
2024-04-23T08:48:00,axn,46.74
2024-04-23T08:49:00,axn,46.78
2024-04-23T08:50:00,axn,46.63
2024-04-23T08:51:00,axn,46.78
2024-04-23T08:52:00,axn,47.32
2024-04-23T08:53:00,axn,47.09
2024-04-23T08:54:00,axn,47.16
2024-04-23T08:55:00,axn,48.04
2024-04-23T08:56:00,axn,48.44
2024-04-23T08:57:00,axn,47.64
2024-04-23T08:58:00,axn,47.36
2024-04-23T08:59:00,axn,46.89
2024-04-23T09:00:00,axn,47.26
2024-04-23T09:01:00,axn,47.17
2024-04-23T09:02:00,axn,47.30
2024-04-23T09:03:00,axn,51.82
2024-04-23T09:04:00,axn,51.76
2024-04-23T09:05:00,axn,47.31
2024-04-23T09:06:00,axn,47.24
2024-04-23T09:07:00,axn,47.41
2024-04-23T09:08:00,axn,47.55
2024-04-23T09:09:00,axn,47.70
2024-04-23T09:10:00,axn,47.73
2024-04-23T09:11:00,axn,47.65
2024-04-23T09:12:00,axn,48.18
2024-04-23T09:13:00,axn,47.80
2024-04-23T09:14:00,axn,47.36
2024-04-23T09:15:00,axn,47.51
2024-04-23T09:16:00,axn,48.14
2024-04-23T09:17:00,axn,47.30
2024-04-23T09:18:00,axn,47.31
2024-04-23T09:19:00,axn,47.41
2024-04-23T09:20:00,axn,47.69
2024-04-23T09:21:00,axn,47.47
2024-04-23T09:22:00,axn,47.77
2024-04-23T09:23:00,axn,48.02
2024-04-23T09:24:00,axn,48.59
2024-04-23T09:25:00,axn,47.66
2024-04-23T09:26:00,axn,47.70
2024-04-23T09:27:00,axn,47.54
2024-04-23T09:28:00,axn,43.01
2024-04-23T09:29:00,axn,43.22
2024-04-23T09:30:00,axn,43.36
2024-04-23T09:31:00,axn,42.90
2024-04-23T09:32:00,axn,51.20
2024-04-23T09:33:00,axn,51.42
2024-04-23T09:34:00,axn,55.75
2024-04-23T09:35:00,axn,52.00
2024-04-23T09:36:00,axn,51.09
2024-04-23T09:37:00,axn,51.39
2024-04-23T09:38:00,axn,51.60
2024-04-23T09:39:00,axn,51.35
2024-04-23T09:40:00,axn,53.82
2024-04-23T09:41:00,axn,53.28
2024-04-23T09:42:00,axn,53.17
2024-04-23T09:43:00,axn,53.32
2024-04-23T09:44:00,axn,53.18
2024-04-23T09:45:00,axn,52.84
2024-04-23T09:46:00,axn,52.39
2024-04-23T09:47:00,axn,52.38
2024-04-23T09:48:00,axn,51.98
2024-04-23T09:49:00,axn,52.26
2024-04-23T09:50:00,axn,52.85
2024-04-23T09:51:00,axn,52.59
2024-04-23T09:52:00,axn,52.73
2024-04-23T09:53:00,axn,55.19
2024-04-23T09:54:00,axn,55.15
2024-04-23T09:55:00,axn,52.37
2024-04-23T09:56:00,axn,52.79
2024-04-23T09:57:00,axn,52.89
2024-04-23T09:58:00,axn,52.39
2024-04-23T09:59:00,axn,52.59
2024-04-23T10:00:00,axn,52.56
2024-04-23T10:01:00,axn,52.61
2024-04-23T10:02:00,axn,52.68
2024-04-23T10:03:00,axn,51.95
2024-04-23T10:04:00,axn,56.77
2024-04-23T10:05:00,axn,52.28
2024-04-23T10:06:00,axn,52.62
2024-04-23T10:07:00,axn,52.39
2024-04-23T10:08:00,axn,52.37
2024-04-23T10:09:00,axn,52.45
2024-04-23T10:10:00,axn,52.33
2024-04-23T10:11:00,axn,52.68
2024-04-23T10:12:00,axn,52.38
2024-04-23T10:13:00,axn,52.57
2024-04-23T10:14:00,axn,52.63
2024-04-23T10:15:00,axn,52.75
2024-04-23T10:16:00,axn,52.71
2024-04-23T10:17:00,axn,52.56
2024-04-23T10:18:00,axn,52.71
2024-04-23T10:19:00,axn,52.45
2024-04-23T10:20:00,axn,52.33
2024-04-23T10:21:00,axn,52.52
2024-04-23T10:22:00,axn,53.11
2024-04-23T10:23:00,axn,52.65
2024-04-23T10:24:00,axn,52.88
2024-04-23T10:25:00,axn,52.63
2024-04-23T10:26:00,axn,52.50
2024-04-23T10:27:00,axn,52.23
2024-04-23T10:28:00,axn,52.10
2024-04-23T10:29:00,axn,52.44
2024-04-23T10:30:00,axn,52.54
2024-04-23T10:31:00,axn,52.69
2024-04-23T10:32:00,axn,56.26
2024-04-23T10:33:00,axn,56.70
2024-04-23T10:34:00,axn,51.82
2024-04-23T10:35:00,axn,52.13
2024-04-23T10:36:00,axn,51.45
2024-04-23T10:37:00,axn,51.24
2024-04-23T10:38:00,axn,51.68
2024-04-23T10:39:00,axn,51.65
2024-04-23T10:40:00,axn,51.97
2024-04-23T10:41:00,axn,51.78
2024-04-23T10:42:00,axn,51.92
2024-04-23T10:43:00,axn,51.36
2024-04-23T10:44:00,axn,56.11
2024-04-23T10:45:00,axn,51.76
2024-04-23T10:46:00,axn,52.17
2024-04-23T10:47:00,axn,52.32
2024-04-23T10:48:00,axn,51.67
2024-04-23T10:49:00,axn,51.48
2024-04-23T10:50:00,axn,52.09
2024-04-23T10:51:00,axn,51.35
2024-04-23T10:52:00,axn,52.27
2024-04-23T10:53:00,axn,51.37
2024-04-23T10:54:00,axn,52.87
2024-04-23T10:55:00,axn,66.82
2024-04-23T10:56:00,axn,66.52
2024-04-23T10:57:00,axn,71.11
2024-04-23T10:58:00,axn,66.24
2024-04-23T10:59:00,axn,66.00
2024-04-23T11:00:00,axn,63.85
2024-04-23T11:01:00,axn,52.13
2024-04-23T11:02:00,axn,52.66
2024-04-23T11:03:00,axn,52.41
2024-04-23T11:04:00,axn,52.18
2024-04-23T11:05:00,axn,52.08
2024-04-23T11:06:00,axn,52.72
2024-04-23T11:07:00,axn,52.95
2024-04-23T11:08:00,axn,52.16
2024-04-23T11:09:00,axn,51.82
2024-04-23T11:10:00,axn,51.98
2024-04-23T11:11:00,axn,51.66
2024-04-23T11:12:00,axn,51.99
2024-04-23T11:13:00,axn,52.46
2024-04-23T11:14:00,axn,52.84
2024-04-23T11:15:00,axn,52.26
2024-04-23T11:16:00,axn,51.68
2024-04-23T11:17:00,axn,52.54
2024-04-23T11:18:00,axn,52.15
2024-04-23T11:19:00,axn,52.08
2024-04-23T11:20:00,axn,52.13
2024-04-23T11:21:00,axn,52.70
2024-04-23T11:22:00,axn,52.61
2024-04-23T11:23:00,axn,52.99
2024-04-23T11:24:00,axn,57.22
2024-04-23T11:25:00,axn,52.72
2024-04-23T11:26:00,axn,65.66
2024-04-23T11:27:00,axn,53.03
2024-04-23T11:28:00,axn,54.98
2024-04-23T11:29:00,axn,55.41
2024-04-23T11:30:00,axn,52.94
2024-04-23T11:31:00,axn,52.84
2024-04-23T11:32:00,axn,53.55
2024-04-23T11:33:00,axn,52.85
2024-04-23T11:34:00,axn,52.92
2024-04-23T11:35:00,axn,52.68
2024-04-23T11:36:00,axn,53.13
2024-04-23T11:37:00,axn,53.42
2024-04-23T11:38:00,axn,53.22
2024-04-23T11:39:00,axn,53.04
2024-04-23T11:40:00,axn,52.57
2024-04-23T11:41:00,axn,52.70
2024-04-23T11:42:00,axn,52.79
2024-04-23T11:43:00,axn,52.64
2024-04-23T11:44:00,axn,52.99
2024-04-23T11:45:00,axn,52.69
2024-04-23T11:46:00,axn,49.21
2024-04-23T11:47:00,axn,44.55
2024-04-23T11:48:00,axn,44.65
2024-04-23T11:49:00,axn,44.43
2024-04-23T11:50:00,axn,44.36
2024-04-23T11:51:00,axn,43.75
2024-04-23T11:52:00,axn,44.01
2024-04-23T11:53:00,axn,43.54
2024-04-23T11:54:00,axn,43.31
2024-04-23T11:55:00,axn,43.44
2024-04-23T11:56:00,axn,43.40
2024-04-23T11:57:00,axn,53.93
2024-04-23T11:58:00,axn,53.69
2024-04-23T11:59:00,axn,53.56
2024-04-23T12:00:00,axn,53.42
2024-04-23T12:01:00,axn,43.47
2024-04-23T12:02:00,axn,43.40
2024-04-23T12:03:00,axn,43.42
2024-04-23T12:04:00,axn,43.34
2024-04-23T12:05:00,axn,47.88
2024-04-23T12:06:00,axn,48.65
2024-04-23T12:07:00,axn,43.50
2024-04-23T12:08:00,axn,43.58
2024-04-23T12:09:00,axn,56.66
2024-04-23T12:10:00,axn,43.48
2024-04-23T12:11:00,axn,43.31
2024-04-23T12:12:00,axn,43.40
2024-04-23T12:13:00,axn,43.45
2024-04-23T12:14:00,axn,42.90
2024-04-23T12:15:00,axn,42.88
2024-04-23T12:16:00,axn,42.86
2024-04-23T12:17:00,axn,45.94
2024-04-23T12:18:00,axn,45.79
2024-04-23T12:19:00,axn,42.79
2024-04-23T12:20:00,axn,42.82
2024-04-23T12:21:00,axn,42.89
2024-04-23T12:22:00,axn,42.90
2024-04-23T12:23:00,axn,42.88
2024-04-23T12:24:00,axn,43.12
2024-04-23T12:25:00,axn,43.28
2024-04-23T12:26:00,axn,43.06
2024-04-23T12:27:00,axn,42.39
2024-04-23T12:28:00,axn,47.35
2024-04-23T12:29:00,axn,42.17
2024-04-23T12:30:00,axn,42.82
2024-04-23T12:31:00,axn,42.40
2024-04-23T12:32:00,axn,42.63
2024-04-23T12:33:00,axn,43.01
2024-04-23T12:34:00,axn,43.26
2024-04-23T12:35:00,axn,43.06
2024-04-23T12:36:00,axn,41.81
2024-04-23T12:37:00,axn,42.08
2024-04-23T12:38:00,axn,42.36
2024-04-23T12:39:00,axn,42.77
2024-04-23T12:40:00,axn,42.68
2024-04-23T12:41:00,axn,43.03
2024-04-23T12:42:00,axn,43.10
2024-04-23T12:43:00,axn,42.87
2024-04-23T12:44:00,axn,43.39
2024-04-23T12:45:00,axn,43.08
2024-04-23T12:46:00,axn,43.32
2024-04-23T12:47:00,axn,43.04
2024-04-23T12:48:00,axn,42.61
2024-04-23T12:49:00,axn,47.21
2024-04-23T12:50:00,axn,42.63
2024-04-23T12:51:00,axn,42.52
2024-04-23T12:52:00,axn,42.31
2024-04-23T12:53:00,axn,42.46
2024-04-23T12:54:00,axn,42.75
2024-04-23T12:55:00,axn,42.40
2024-04-23T12:56:00,axn,42.26
2024-04-23T12:57:00,axn,43.76
2024-04-23T12:58:00,axn,42.32
2024-04-23T12:59:00,axn,42.19
2024-04-23T13:00:00,axn,42.03
2024-04-23T13:01:00,axn,42.72
2024-04-23T13:02:00,axn,42.20
2024-04-23T13:03:00,axn,42.19
2024-04-23T13:04:00,axn,42.29
2024-04-23T13:05:00,axn,42.12
2024-04-23T13:06:00,axn,42.29
2024-04-23T13:07:00,axn,41.97
2024-04-23T13:08:00,axn,41.75
2024-04-23T13:09:00,axn,41.89
2024-04-23T13:10:00,axn,42.33
2024-04-23T13:11:00,axn,42.58
2024-04-23T13:12:00,axn,41.98
2024-04-23T13:13:00,axn,41.53
2024-04-23T13:14:00,axn,45.29
2024-04-23T13:15:00,axn,47.37
2024-04-23T13:16:00,axn,42.61
2024-04-23T13:17:00,axn,42.31
2024-04-23T13:18:00,axn,42.75